Reidsville, NC

5:29 PM EST on November 21, 2017 (GMT -0500)
Reidsville

Weather History for KSIF - October, 2012

Change the Weather History Date:

Monday, October 8, 2012

  Actual Average (KGSO) Record (KGSO)
Temperature  
Mean Temperature 46 °F -  
Max Temperature 47 °F 69 °F 92 °F (1941)
Min Temperature 45 °F 49 °F 30 °F (1935)
Degree Days  
Heating Degree Days 19    
Moisture  
Dew Point 44 °F    
Average Humidity 91    
Maximum Humidity 100    
Minimum Humidity 82    
Precipitation  
Precipitation 0.00 in - - ()
Sea Level Pressure  
Sea Level Pressure 30.20 in    
Wind  
Wind Speed 1 mph (NE)    
Max Wind Speed 7 mph    
Max Gust Speed -    
Visibility 9 miles    
Events Rain    
Averages and records for this station are not official NWS values.
T = Trace of Precipitation, MM = Missing Value Source: NWS Daily Summary

Daily Weather History Graph

Daily Weather History Graph

Search for Another Location

Airport or City:

Trip Planner

Search our weather history database for the weather conditions in past years. The results will help you decide how hot, cold, wet, or windy it might be!

Date:

Astronomy

Oct. 08, 2012 Rise Set
Actual Time 7:20 AM EDT 6:52 PM EDT
Civil Twilight 6:55 AM EDT 7:17 PM EDT
Nautical Twilight 6:25 AM EDT 7:47 PM EDT
Astronomical Twilight 5:55 AM EDT 8:17 PM EDT
Moon 12:10 AM EDT (10/8) 2:30 PM EDT (10/8)
Length of Visible Light 12h 22m
Length of Day
11h 31m
Waning Gibbous, 46% of the Moon is Illuminated
Oct 8
Waning Gibbous
Oct 15
New
Oct 21
First Quarter
Oct 29
Full
Nov 6
Last Quarter

Hourly Weather History & Observations

Time (EDT) Temp. Windchill Dew Point Humidity Pressure Visibility Wind Dir Wind Speed Gust Speed Precip Events Conditions
12:15 AM 45.7 °F - 45.7 °F 100% 30.17 in 10.0 mi Calm Calm - N/A   Clear
12:35 AM 45.7 °F - 45.5 °F 99% 30.17 in 10.0 mi Calm Calm - N/A   Clear
12:55 AM 45.3 °F - 45.1 °F 99% 30.17 in 10.0 mi Calm Calm - N/A   Clear
1:15 AM 45.3 °F - 45.0 °F 99% 30.16 in 10.0 mi Calm Calm - N/A   Scattered Clouds
1:35 AM 45.1 °F - 44.6 °F 98% 30.17 in 10.0 mi Calm Calm - N/A   Overcast
1:55 AM 45.7 °F - 44.8 °F 97% 30.17 in 10.0 mi Calm Calm - N/A   Overcast
2:15 AM 46.0 °F - 45.1 °F 97% 30.18 in 10.0 mi Calm Calm - N/A   Overcast
2:35 AM 46.2 °F - 44.8 °F 95% 30.17 in 10.0 mi Calm Calm - N/A   Overcast
2:55 AM 46.2 °F - 44.8 °F 95% 30.17 in 10.0 mi Calm Calm - N/A   Overcast
3:15 AM 46.4 °F - 44.8 °F 94% 30.16 in 10.0 mi Calm Calm - N/A   Overcast
3:35 AM 46.4 °F - 45.0 °F 95% 30.17 in 10.0 mi Calm Calm - N/A   Overcast
3:55 AM 46.4 °F - 45.0 °F 95% 30.18 in 10.0 mi Calm Calm - N/A   Overcast
4:15 AM 46.4 °F - 45.1 °F 95% 30.18 in 10.0 mi Calm Calm - N/A   Overcast
4:35 AM 46.6 °F - 45.1 °F 95% 30.18 in 10.0 mi Calm Calm - N/A   Overcast
4:55 AM 46.6 °F - 45.1 °F 95% 30.18 in 10.0 mi Calm Calm - N/A   Overcast
5:15 AM 46.4 °F - 45.1 °F 95% 30.19 in 10.0 mi Calm Calm - N/A   Overcast
5:35 AM 46.4 °F - 44.4 °F 93% 30.19 in 10.0 mi Calm Calm - N/A   Overcast
5:55 AM 46.6 °F - 43.9 °F 90% 30.19 in 10.0 mi NNE 3.5 mph - N/A   Overcast
6:15 AM 46.8 °F - 43.7 °F 89% 30.21 in 10.0 mi Calm Calm - N/A   Overcast
6:35 AM 46.8 °F - 43.9 °F 90% 30.21 in 10.0 mi Calm Calm - N/A   Overcast
6:55 AM 46.8 °F - 43.9 °F 90% 30.22 in 10.0 mi Calm Calm - N/A   Overcast
7:15 AM 46.8 °F - 43.7 °F 89% 30.21 in 10.0 mi Calm Calm - N/A   Overcast
7:35 AM 46.8 °F - 43.7 °F 89% 30.22 in 10.0 mi Calm Calm - N/A   Overcast
7:55 AM 46.8 °F - 43.9 °F 90% 30.22 in 10.0 mi Calm Calm - N/A   Overcast
8:15 AM 46.8 °F - 44.2 °F 91% 30.24 in 10.0 mi Calm Calm - N/A Rain Light Rain
8:35 AM 46.8 °F - 44.2 °F 91% 30.23 in 10.0 mi Calm Calm - N/A Rain Light Rain
8:55 AM 46.8 °F - 44.6 °F 92% 30.23 in 7.0 mi NE 3.5 mph - N/A Rain Rain
9:15 AM 46.8 °F - 44.4 °F 92% 30.24 in 10.0 mi NE 4.6 mph - N/A   Overcast
9:35 AM 46.6 °F - 44.4 °F 92% 30.25 in 10.0 mi Calm Calm - N/A   Overcast
9:55 AM 46.6 °F - 44.4 °F 92% 30.24 in 10.0 mi ENE 3.5 mph - N/A   Overcast
10:15 AM 46.4 °F 44.3 °F 44.2 °F 92% 30.26 in 10.0 mi ENE 4.6 mph - N/A   Overcast
10:35 AM 46.4 °F 45.2 °F 43.7 °F 90% 30.26 in 10.0 mi ENE 3.5 mph - N/A   Overcast
10:55 AM 46.4 °F 45.2 °F 43.7 °F 90% 30.26 in 10.0 mi ENE 3.5 mph - N/A   Overcast
11:15 AM 46.6 °F - 43.5 °F 89% 30.27 in 10.0 mi NNE 6.9 mph - N/A   Overcast
11:35 AM 46.4 °F 44.3 °F 42.8 °F 87% 30.26 in 10.0 mi NE 4.6 mph - N/A   Overcast
11:55 AM 46.6 °F - 42.8 °F 87% 30.26 in 10.0 mi ENE 3.5 mph - N/A   Overcast
12:15 PM 46.6 °F - 42.8 °F 87% 30.26 in 10.0 mi Calm Calm - N/A Rain Light Rain
12:35 PM 46.2 °F - 43.5 °F 90% 30.27 in 10.0 mi Calm Calm - N/A   Drizzle
12:55 PM 45.9 °F - 43.3 °F 91% 30.27 in 7.0 mi Calm Calm - N/A   Light Drizzle
1:15 PM 45.7 °F 44.4 °F 43.5 °F 92% 30.26 in 7.0 mi NE 3.5 mph - N/A   Light Drizzle
1:55 PM 46.0 °F 43.9 °F 43.2 °F 90% 30.24 in 10.0 mi NNE 4.6 mph - N/A   Overcast
2:15 PM 45.9 °F 43.6 °F 42.8 °F 89% 30.22 in 10.0 mi NNE 4.6 mph - N/A   Overcast
2:35 PM 45.9 °F 43.6 °F 42.8 °F 89% 30.21 in 10.0 mi NE 4.6 mph - N/A   Overcast
2:55 PM 46.4 °F 43.5 °F 43.0 °F 88% 30.20 in 10.0 mi NNE 5.8 mph - N/A   Overcast
3:15 PM 46.6 °F - 42.1 °F 84% 30.19 in 10.0 mi NNE 4.6 mph - N/A   Overcast
3:35 PM 46.8 °F - 41.7 °F 83% 30.19 in 10.0 mi NNE 3.5 mph - N/A   Overcast
3:55 PM 46.9 °F - 41.9 °F 83% 30.18 in 10.0 mi NNE 5.8 mph - N/A   Overcast
4:15 PM 47.3 °F - 41.9 °F 82% 30.19 in 10.0 mi Calm Calm - N/A   Overcast
4:35 PM 47.3 °F - 42.1 °F 82% 30.17 in 10.0 mi Calm Calm - N/A   Overcast
4:55 PM 47.5 °F - 42.4 °F 83% 30.18 in 10.0 mi North 3.5 mph - N/A   Overcast
5:15 PM 47.5 °F - 42.4 °F 83% 30.17 in 10.0 mi NNE 4.6 mph - N/A   Overcast
5:35 PM 47.5 °F - 42.8 °F 84% 30.18 in 10.0 mi Calm Calm - N/A   Overcast
5:55 PM 47.5 °F - 42.8 °F 84% 30.19 in 10.0 mi Calm Calm - N/A   Overcast
6:15 PM 47.5 °F - 43.2 °F 85% 30.19 in 10.0 mi NNE 4.6 mph - N/A   Overcast
6:35 PM 47.3 °F - 42.6 °F 84% 30.19 in 10.0 mi NE 5.8 mph - N/A   Overcast
6:55 PM 46.9 °F - 42.1 °F 83% 30.19 in 10.0 mi NNE 4.6 mph - N/A   Overcast
7:15 PM 46.6 °F - 42.3 °F 85% 30.19 in 10.0 mi NE 6.9 mph - N/A   Overcast
7:35 PM 46.4 °F 45.2 °F 42.4 °F 86% 30.19 in 10.0 mi NNE 3.5 mph - N/A   Overcast
7:55 PM 45.9 °F 43.6 °F 42.6 °F 88% 30.19 in 10.0 mi NNE 4.6 mph - N/A   Overcast
8:15 PM 45.9 °F 42.9 °F 42.6 °F 88% 30.19 in 10.0 mi NNE 5.8 mph - N/A   Overcast
8:35 PM 45.9 °F - 42.6 °F 88% 30.19 in 7.0 mi Calm Calm - N/A   Overcast
8:55 PM 45.5 °F - 43.2 °F 92% 30.20 in 5.0 mi Calm Calm - N/A   Light Drizzle
9:15 PM 45.1 °F - 43.3 °F 93% 30.20 in 7.0 mi Calm Calm - N/A   Light Drizzle
9:35 PM 45.1 °F - 43.5 °F 94% 30.20 in 5.0 mi Calm Calm - N/A   Overcast
9:55 PM 45.1 °F - 43.7 °F 95% 30.21 in 5.0 mi Calm Calm - N/A   Overcast
10:15 PM 45.1 °F - 43.9 °F 95% 30.20 in 4.0 mi Calm Calm - N/A   Overcast
10:35 PM 45.1 °F - 43.9 °F 95% 30.20 in 5.0 mi Calm Calm - N/A   Overcast
10:55 PM 45.1 °F - 43.9 °F 95% 30.20 in 7.0 mi Calm Calm - N/A   Overcast
11:15 PM 45.3 °F - 43.7 °F 94% 30.20 in 10.0 mi Calm Calm - N/A   Overcast
11:55 PM 45.5 °F 44.2 °F 44.2 °F 95% 30.20 in 5.0 mi North 3.5 mph - N/A   Drizzle